This is the latest recevied weather packets stored in our database for station/object WD9EKA. If no packets are shown the sender has not sent any weather packets the latest 10 day(s).
| Time | Temp. | Humidity | Pressure | Rain* | Wind** | Luminosity | Snow |
|---|---|---|---|---|---|---|---|
| 1777938214 | 22.78° C | 50% | 998.4 hPa | 0 mm | - | - | - |
| 1777937854 | 22.78° C | 50% | 998.3 hPa | 0 mm | - | - | - |
| 1777937494 | 23.33° C | 49% | 998.4 hPa | 0 mm | - | - | - |
| 1777937134 | 23.33° C | 48% | 998.3 hPa | 0 mm | - | - | - |
| 1777936774 | 23.33° C | 52% | 998.6 hPa | 0 mm | - | - | - |
| 1777936414 | 23.33° C | 51% | 998.7 hPa | 0 mm | - | - | - |
| 1777936054 | 23.33° C | 51% | 998.7 hPa | 0 mm | - | - | - |
| 1777935694 | 23.33° C | 51% | 998.9 hPa | 0 mm | - | - | - |
| 1777935394 | 23.33° C | 51% | 998.5 hPa | 0 mm | - | - | - |
| 1777935079 | 23.33° C | 51% | 998.9 hPa | 0 mm | - | - | - |
| 1777934759 | 23.33° C | 52% | 998.8 hPa | 0 mm | - | - | - |
| 1777934434 | 23.89° C | 51% | 998.9 hPa | 0 mm | - | - | - |
| 1777934119 | 23.33° C | 51% | 998.8 hPa | 0 mm | - | - | - |
| 1777933799 | 23.89° C | 51% | 999 hPa | 0 mm | - | - | - |
| 1777933174 | 23.89° C | 52% | 998.9 hPa | 0 mm | - | - | - |
| 1777932855 | 23.89° C | 53% | 999.3 hPa | 0 mm | - | - | - |
| 1777932535 | 23.89° C | 52% | 999.2 hPa | 0 mm | - | - | - |
| 1777932214 | 23.33° C | 53% | 999.4 hPa | 0 mm | - | - | - |
| 1777931914 | 23.33° C | 53% | 999.3 hPa | 0 mm | - | - | - |
| 1777931607 | 23.33° C | 55% | 999.5 hPa | 0 mm | - | - | - |
| 1777931287 | 23.33° C | 53% | 999.4 hPa | 0 mm | - | - | - |
| 1777930967 | 23.89° C | 54% | 999.4 hPa | 0 mm | - | - | - |
| 1777930647 | 23.33° C | 52% | 999.4 hPa | 0 mm | - | - | - |
| 1777930327 | 23.89° C | 53% | 999.4 hPa | 0 mm | - | - | - |
| 1777930007 | 23.33° C | 51% | 999.3 hPa | 0 mm | - | - | - |
* Rain latest hour (hover to see other rain measurements)
** Current wind speed in m/s (hover to see current wind gust speed)